GEFSNGP_con_probscp_180.txt.gz
Probability
0 0 0 0 0 0 0 0 0 0 1 1 3 7 12 15 17 20 22 23 26 30 34 34 32 32 33 31 26 25 25 26 28 30 28 27 27 28 29 28 25 25 26 23
0 0 0 0 0 0 0 0 0 0 1 3 6 10 13 15 17 20 23 24 24 27 31 33 31 30 30 29 27 27 26 26 27 28 27 27 28 28 29 27 25 24 22 20
0 0 0 0 0 0 0 0 0 1 2 7 11 14 16 18 19 21 24 25 23 23 26 28 28 28 28 28 28 27 26 24 25 25 24 25 27 27 27 27 26 23 20 17
0 0 0 0 1 2 1 1 1 2 5 11 15 17 20 22 22 22 25 26 25 23 22 23 24 25 26 27 26 24 22 21 22 22 22 23 25 25 25 25 25 24 22 20
0 0 0 1 3 5 4 3 4 5 9 13 16 16 18 21 22 23 26 29 29 26 24 23 22 21 21 21 20 19 18 19 20 20 20 21 23 24 25 24 24 24 25 24
0 1 2 3 5 6 6 7 8 9 12 14 14 15 16 18 21 23 26 31 32 30 27 25 22 18 15 13 12 13 15 18 19 19 18 20 23 25 27 27 24 24 25 26
1 3 5 5 5 8 11 13 14 15 16 16 17 18 18 20 22 23 24 29 31 30 29 26 22 17 13 11 10 11 14 17 17 17 17 19 24 27 29 29 26 24 25 26
6 8 9 9 11 15 18 20 20 19 19 18 20 20 19 21 24 22 22 25 27 26 26 25 20 15 13 13 12 13 16 18 18 17 16 19 25 31 31 31 28 24 22 22
13 13 13 14 18 21 21 21 21 20 18 16 16 15 17 20 22 22 21 22 21 20 21 21 18 15 15 15 15 16 17 19 19 19 19 21 26 30 31 31 28 23 18 17
14 13 14 17 20 21 20 19 19 18 15 13 11 12 15 18 19 21 20 18 16 14 17 19 18 17 17 17 17 17 17 18 20 21 21 22 23 24 24 25 24 21 18 16
14 14 15 17 17 17 16 16 16 17 15 12 11 12 14 15 16 16 17 15 13 11 14 17 18 18 18 18 19 20 20 21 23 24 24 22 19 15 14 15 15 15 14 14
15 15 15 15 14 13 13 13 14 16 15 12 11 12 13 13 12 12 12 12 11 10 13 16 17 16 17 19 23 25 26 26 26 25 23 20 15 9 6 5 5 5 5 6
12 12 11 11 11 11 11 12 12 13 13 11 9 10 11 11 11 11 10 10 9 9 11 14 14 14 16 20 23 25 25 24 23 20 18 15 11 6 3 1 0 0 0 0
6 7 7 7 8 9 10 10 10 10 10 8 7 8 9 10 11 11 10 9 8 9 11 12 12 12 13 16 17 17 16 15 14 13 11 9 7 5 3 2 2 2 1 0
3 3 4 4 6 7 7 7 6 6 6 5 5 6 7 8 9 10 10 9 9 10 10 10 9 9 8 8 9 9 8 7 8 8 7 5 4 4 4 4 4 4 2 1
1 1 2 4 5 6 6 4 3 2 2 3 3 3 3 4 5 6 7 8 9 9 9 7 5 5 4 3 3 4 4 3 4 5 4 4 4 5 6 6 6 4 3 2
0 1 1 3 4 4 4 3 1 0 0 1 1 1 1 1 1 2 3 4 6 7 6 4 3 3 3 3 3 4 3 3 3 4 5 5 5 6 7 6 5 3 2 1
1 1 1 1 1 1 1 1 0 0 0 0 0 0 0 0 0 0 0 1 2 4 3 1 1 1 2 2 3 4 5 4 5 5 6 5 5 6 7 6 3 1 1 0
0 1 1 0 0 0 0 0 0 0 0 0 0 0 0 0 0 0 0 0 0 1 1 0 0 0 1 1 1 3 5 5 5 6 5 4 3 4 5 4 2 0 0 0
1 1 1 1 1 1 0 0 0 0 0 0 0 0 0 0 0 0 0 0 0 0 0 0 0 0 0 0 0 2 3 4 4 3 3 2 1 1 2 1 0 0 0 0
2 2 2 2 2 1 0 0 0 0 0 0 0 0 0 0 0 0 0 0 0 0 0 0 0 0 0 0 0 1 2 2 2 1 1 1 0 0 0 0 0 0 0 0
2 2 2 2 2 1 0 0 0 0 0 0 0 0 0 0 0 0 0 0 0 0 0 0 0 0 0 0 0 1 1 1 1 0 0 0 0 0 0 0 0 0 0 0
1 1 1 1 1 0 0 0 0 0 0 0 0 0 0 0 0 0 0 0 0 0 0 0 0 0 0 0 0 0 0 0 0 0 0 0 0 0 0 0 0 0 0 0
0 0 0 0 0 0 0 0 0 0 0 0 0 0 0 0 0 0 0 0 0 0 0 0 0 0 0 0 0 0 0 0 0 0 0 0 0 0 0 0 0 0 0 0
0 0 0 0 0 0 0 0 0 0 0 0 0 0 0 0 0 0 0 0 0 0 0 0 0 0 0 0 0 0 0 0 0 0 0 0 0 0 0 0 0 0 0 0
0 0 0 0 0 0 0 0 0 0 0 0 0 0 0 0 0 0 0 0 0 0 0 0 0 0 0 0 0 0 0 0 0 0 0 0 0 0 0 0 0 0 0 0
0 0 0 0 0 0 0 0 0 0 0 0 0 0 0 0 0 0 0 0 0 0 0 0 0 0 0 0 0 0 0 0 0 0 0 0 0 0 0 0 0 0 0 0

GEFSNGP_con_probscp_186.txt.gz
Probability
0 0 0 0 0 0 0 0 1 3 5 7 9 14 20 26 30 33 41 50 57 62 65 64 58 52 50 51 52 50 46 42 42 43 41 37 36 36 37 37 39 42 41 40
0 0 0 0 0 0 0 0 1 3 6 9 12 18 25 31 33 34 39 46 54 60 61 62 58 52 50 52 55 54 49 43 42 43 42 38 36 35 35 35 36 39 41 40
0 0 0 1 1 0 1 2 3 4 7 12 19 26 33 39 38 37 38 45 53 57 58 59 58 53 50 50 53 52 48 43 41 41 41 39 35 33 32 32 33 35 37 38
0 0 0 1 2 2 3 6 7 6 9 17 27 34 39 42 42 41 43 49 55 55 54 55 55 53 49 46 46 44 42 41 40 38 37 35 32 30 30 30 31 32 33 34
3 1 1 2 4 4 6 8 10 11 16 24 31 36 40 43 45 47 50 54 56 54 52 52 51 49 46 42 39 38 38 38 38 35 33 32 30 30 30 31 32 31 31 31
8 4 3 5 6 5 8 13 17 22 28 32 34 37 41 46 50 52 53 53 53 53 51 50 48 45 42 39 38 38 38 38 36 32 31 30 29 29 31 34 35 33 31 31
9 6 5 8 9 12 21 30 34 38 42 43 42 43 46 52 56 54 50 48 47 48 48 47 45 44 42 40 39 38 39 37 33 30 29 29 30 30 32 34 34 33 32 31
7 9 13 16 19 28 43 52 49 47 49 48 47 47 51 57 59 55 49 45 42 42 43 42 43 45 43 40 39 37 36 33 29 27 26 27 30 32 33 34 33 32 31 31
12 17 23 27 31 40 53 58 52 46 45 46 46 47 52 57 57 52 47 43 39 38 38 39 42 43 41 40 38 35 32 30 28 26 25 26 28 29 30 30 30 30 29 28
19 22 26 30 33 39 47 53 49 42 40 42 42 45 48 51 50 47 41 36 34 33 34 35 36 37 38 38 37 34 30 30 29 27 25 24 23 22 22 22 23 24 24 22
21 21 22 25 29 33 41 47 47 42 40 39 39 41 42 42 41 39 34 29 27 27 28 28 29 30 32 34 34 32 30 29 29 28 24 20 17 14 12 12 13 14 15 13
20 19 19 21 24 28 35 42 44 43 41 39 38 37 36 35 34 33 28 24 22 21 21 22 23 23 25 27 30 31 30 28 27 26 23 17 13 10 7 5 4 5 6 6
19 18 17 19 21 23 29 36 40 40 39 38 34 30 28 28 27 25 22 19 18 17 18 21 21 21 22 22 26 29 30 28 25 22 18 14 12 10 7 4 2 1 1 1
15 15 15 17 19 20 25 30 32 33 32 30 26 22 21 20 18 16 15 14 14 14 17 19 19 20 20 20 21 24 24 22 19 16 13 12 12 11 9 7 4 2 1 0
11 12 13 13 16 20 21 23 25 24 23 21 18 15 14 13 11 10 10 10 10 11 12 14 15 17 17 16 15 14 12 11 10 10 10 11 11 11 9 7 5 3 1 0
7 8 9 9 11 15 15 16 18 18 17 16 12 9 8 7 6 6 6 6 6 7 8 11 13 14 13 11 8 5 3 3 3 5 6 7 7 7 6 6 5 3 1 0
3 3 3 4 6 8 9 10 13 14 13 11 9 7 5 4 3 2 2 2 3 4 6 9 10 11 10 7 5 3 2 2 1 2 2 2 2 3 4 6 6 3 1 0
1 0 0 1 2 4 6 7 9 10 9 7 6 5 4 3 2 1 1 0 1 2 3 4 5 6 5 4 4 4 4 2 1 0 0 0 0 2 4 5 5 3 1 0
0 0 0 1 3 5 6 6 6 6 5 3 2 3 3 2 1 1 1 0 0 1 1 1 1 1 1 1 2 3 3 2 0 0 0 1 1 2 3 4 3 1 0 0
0 0 0 1 2 4 5 5 4 4 3 2 1 1 1 1 0 1 1 0 0 0 0 0 0 0 0 0 1 2 2 2 1 0 1 2 2 3 3 3 2 1 0 0
0 0 0 1 1 1 3 3 3 2 1 1 0 0 0 0 0 0 0 0 0 0 0 0 0 0 0 0 0 1 2 2 1 0 2 3 3 3 3 2 1 0 0 0
1 1 1 0 0 1 1 1 1 1 0 0 0 0 0 0 0 0 0 0 0 0 0 0 0 0 0 0 0 0 1 1 0 0 1 2 2 2 1 1 0 0 0 0
2 2 2 1 1 1 1 0 0 0 0 0 0 0 0 0 0 0 0 0 0 0 0 0 0 0 0 0 0 0 0 0 0 0 0 1 1 1 0 0 0 0 0 0
1 1 2 2 2 1 1 0 0 0 0 0 0 0 0 0 0 0 0 0 0 0 0 0 0 0 0 0 0 0 0 0 0 0 0 0 0 0 0 0 0 0 0 0
2 1 2 2 2 0 0 0 0 0 0 0 0 0 0 0 0 0 0 0 0 0 0 0 0 0 0 0 0 0 0 0 0 0 0 0 0 0 0 0 0 0 0 0
2 2 2 2 1 0 0 0 0 0 0 0 0 0 0 0 0 0 0 0 0 0 0 0 0 0 0 0 0 0 0 0 0 0 0 0 0 0 0 0 0 0 0 0
1 1 1 1 1 0 0 0 0 0 0 0 0 0 0 0 0 0 0 0 0 0 0 0 0 0 0 0 0 0 0 0 0 0 0 0 0 0 0 0 0 0 0 0

GEFSNGP_con_probscp_192.txt.gz
Probability
0 0 0 0 0 0 0 0 0 1 2 3 5 7 11 20 30 35 38 40 42 43 44 47 46 40 36 35 34 31 29 28 24 19 16 13 11 9 7 6 6 4 2 2
0 0 0 0 0 0 1 1 0 1 2 4 7 9 13 20 28 33 36 41 44 43 44 45 45 42 38 35 31 28 26 25 22 19 16 13 11 9 7 7 7 6 5 4
0 0 0 0 0 1 3 3 3 3 5 8 11 14 18 23 28 34 39 42 43 42 43 44 44 42 37 34 30 26 24 23 21 19 17 14 11 10 10 10 10 10 9 8
0 0 0 0 0 1 3 5 7 8 9 13 19 23 25 28 32 38 42 42 40 39 40 43 42 38 36 34 31 27 24 22 21 20 18 15 13 13 13 14 15 15 13 13
0 0 0 0 0 0 2 5 9 12 15 21 29 33 32 32 35 40 42 42 39 35 36 38 38 37 37 35 31 27 22 20 19 19 19 17 15 16 17 18 19 18 16 15
0 0 0 0 1 1 1 5 9 13 20 29 36 39 35 34 38 42 43 40 35 31 30 33 34 35 35 33 29 23 19 18 17 17 18 17 16 16 18 18 18 17 15 12
0 0 0 1 4 5 4 7 12 18 26 34 38 39 38 38 40 43 42 38 31 26 26 28 30 31 29 27 23 19 17 15 15 15 15 15 15 15 16 16 15 13 11 9
0 0 0 2 6 8 8 11 19 26 31 34 37 39 40 40 40 39 36 31 27 24 23 23 25 25 22 18 16 15 14 13 12 12 13 14 14 14 13 13 11 9 8 7
0 0 0 2 4 5 5 11 21 28 32 32 34 37 37 37 35 31 27 24 24 23 21 20 20 19 16 13 12 12 11 10 9 9 10 11 12 11 10 10 9 7 6 6
1 0 1 2 2 1 3 10 19 25 29 31 32 33 32 31 28 25 23 22 22 20 17 15 15 14 12 11 12 11 9 7 6 5 5 6 7 7 7 7 7 7 6 6
1 0 1 2 2 2 4 11 18 22 26 30 31 31 28 24 21 21 21 20 19 16 13 12 12 11 10 10 10 9 7 5 3 3 3 3 4 4 4 5 5 5 5 6
1 0 1 1 2 3 5 11 17 21 24 28 29 28 24 20 17 16 16 16 16 15 13 12 11 11 9 8 8 7 5 3 2 2 3 4 3 3 3 3 3 2 3 3
1 1 1 1 2 4 8 13 17 20 23 24 23 21 19 16 13 12 11 12 14 14 13 13 13 11 8 6 5 4 3 2 1 1 2 3 3 2 2 2 1 1 1 1
1 1 1 1 2 6 11 14 16 17 18 17 15 14 12 11 9 8 8 9 11 11 12 13 12 10 6 4 3 2 2 1 0 0 1 2 3 3 4 4 3 2 1 0
1 1 1 0 1 5 10 12 12 12 12 10 8 7 6 4 4 4 4 5 6 6 7 8 8 6 3 2 2 2 2 1 0 0 0 1 2 4 5 6 6 4 3 1
1 1 1 0 0 2 5 6 7 7 6 4 3 2 1 1 1 1 1 1 2 2 2 2 3 2 2 2 2 2 2 1 0 0 0 0 1 3 4 5 6 5 4 3
0 0 0 0 0 1 2 3 4 3 2 1 0 0 0 0 0 0 0 0 0 0 0 0 0 1 2 2 1 1 1 0 0 0 0 0 0 1 1 3 4 4 3 2
0 0 0 0 0 0 1 1 1 1 0 0 0 0 0 0 0 0 0 0 0 0 0 0 0 0 1 1 0 0 0 0 0 0 0 0 0 0 0 1 1 1 1 1
0 0 0 0 0 0 0 0 0 0 0 0 0 0 0 0 0 0 0 0 0 0 0 0 0 0 0 0 0 0 0 0 0 0 0 0 0 0 0 0 0 0 0 0
0 0 0 0 0 0 0 0 0 0 0 0 0 0 0 0 0 0 0 0 0 0 0 0 0 0 0 0 0 0 0 0 0 0 0 0 0 0 0 0 0 0 0 0
0 0 0 0 0 0 0 0 0 0 0 0 0 0 0 0 0 0 0 0 0 0 0 0 0 0 0 0 0 0 0 0 0 0 0 0 0 0 0 0 0 0 0 0
0 0 0 0 0 0 0 0 0 0 0 0 0 0 0 0 0 0 0 0 0 0 0 0 0 0 0 0 0 0 0 0 0 0 0 0 0 0 0 0 0 0 0 0
0 0 0 0 1 1 0 0 0 0 0 0 0 0 0 0 0 0 0 0 0 0 0 0 0 0 0 0 0 0 0 0 0 0 0 0 0 0 0 0 0 0 0 0
0 0 0 0 1 1 0 0 0 0 0 0 0 0 0 0 0 0 0 0 0 0 0 0 0 0 0 0 0 0 0 0 0 0 0 0 0 0 0 0 0 0 0 0
0 0 0 0 1 1 0 0 0 0 0 0 0 0 0 0 0 0 0 0 0 0 0 0 0 0 0 0 0 0 0 0 0 0 0 0 0 0 0 0 0 0 0 0
0 0 1 0 0 0 0 0 0 0 0 0 0 0 0 0 0 0 0 0 0 0 0 0 0 0 0 0 0 0 0 0 0 0 0 0 0 0 0 0 0 0 0 0
0 0 1 0 0 0 0 0 0 0 0 0 0 0 0 0 0 0 0 0 0 0 0 0 0 0 0 0 0 0 0 0 0 0 0 0 0 0 0 0 0 0 0 0

GEFSNGP_con_probscp_198.txt.gz
Probability
0 0 1 1 1 0 0 0 0 0 0 0 1 4 8 11 14 17 17 15 16 21 23 23 24 26 27 30 29 25 23 21 18 15 14 13 12 12 12 9 6 4 4 5
0 0 1 2 2 1 0 0 0 0 0 1 2 4 7 10 13 17 17 16 17 22 24 24 25 28 30 30 29 27 25 22 18 15 12 12 12 12 12 11 8 6 6 5
0 0 1 2 2 1 1 1 0 0 1 2 3 5 6 8 13 16 15 16 19 23 26 27 29 32 33 33 32 31 28 23 19 15 13 12 12 12 13 13 12 10 9 9
0 0 0 1 1 1 2 2 1 0 2 3 4 5 7 9 14 16 15 16 19 23 26 29 30 31 33 34 33 32 28 24 19 16 14 13 12 13 14 14 13 12 12 12
0 0 0 0 1 2 2 2 2 1 3 6 6 7 8 11 16 20 19 18 19 21 22 24 25 27 31 34 33 30 26 22 19 17 14 13 13 13 14 14 13 13 12 12
0 0 0 0 1 1 1 2 3 3 5 6 7 8 8 11 16 21 22 20 20 19 19 20 21 25 31 34 32 28 23 20 19 17 15 13 12 13 14 15 13 12 10 9
0 0 0 0 1 1 1 2 3 4 5 6 7 8 9 11 15 19 21 20 19 18 17 18 21 25 29 29 27 24 20 18 16 15 14 13 12 12 13 13 12 10 9 8
0 0 0 1 2 2 2 3 5 6 5 5 7 9 10 12 16 20 20 18 15 15 15 15 19 22 22 20 20 19 16 13 11 11 11 11 11 12 12 11 10 10 9 8
0 0 1 2 3 3 3 4 5 6 4 5 8 9 10 12 16 19 19 15 11 10 11 12 14 16 16 15 15 15 12 9 7 7 8 9 10 10 9 9 9 10 9 8
0 0 1 2 3 3 3 4 6 6 5 6 9 10 9 10 12 14 14 11 9 8 8 8 8 11 12 13 13 12 10 7 5 5 5 6 6 6 5 6 7 8 8 7
0 0 1 2 3 3 3 4 6 7 7 9 11 9 8 7 9 10 9 7 8 9 8 6 5 7 9 10 10 9 6 4 3 3 3 2 2 2 1 2 3 5 6 6
0 0 0 1 3 3 4 5 7 7 8 9 8 7 6 5 6 8 7 6 7 9 9 7 5 6 7 7 7 5 2 1 1 1 1 0 0 0 0 0 1 1 3 3
0 0 0 1 2 4 4 5 6 6 6 5 4 4 3 3 4 6 6 5 6 7 7 6 5 7 7 5 4 3 1 0 0 0 0 0 0 0 1 1 1 1 1 1
0 0 0 1 2 3 4 3 3 3 2 2 2 1 1 1 3 5 5 4 4 4 4 5 5 6 6 4 3 2 1 0 0 0 0 0 0 0 1 2 2 1 0 0
0 0 0 1 2 2 2 1 1 1 1 1 1 0 0 1 2 4 4 4 4 4 4 4 4 4 3 3 3 2 1 0 1 0 0 0 0 0 1 1 1 1 0 0
0 0 0 1 1 1 1 0 0 0 1 2 2 0 0 1 2 2 3 3 3 3 2 2 2 2 2 2 2 1 0 0 0 0 0 0 0 0 0 0 0 0 0 0
0 0 0 0 0 0 0 0 0 0 2 3 2 1 1 0 1 1 1 1 1 1 1 1 1 1 0 1 1 0 0 0 0 0 0 0 0 0 0 0 0 0 0 0
0 0 0 0 0 0 0 0 0 1 2 2 2 2 1 0 0 0 0 0 0 0 0 0 0 0 0 0 0 0 0 0 0 0 0 0 0 0 0 0 0 0 0 0
0 0 0 0 0 0 0 0 0 0 1 1 1 1 1 0 0 0 0 0 0 0 0 0 0 0 0 0 0 0 0 0 0 0 0 0 0 0 0 0 0 0 0 0
0 0 0 0 0 0 0 0 0 0 0 0 0 0 0 0 0 0 0 0 0 0 0 0 0 0 0 0 0 0 0 0 0 0 0 0 0 0 0 0 0 0 0 0
0 0 0 0 0 0 0 0 0 0 0 0 0 0 0 0 0 0 0 0 0 0 0 0 0 0 0 0 0 0 0 0 0 0 0 0 0 0 0 0 0 0 0 0
0 0 0 0 0 0 0 0 0 0 0 0 0 0 0 0 0 0 0 0 0 0 0 0 0 0 0 0 0 0 0 0 0 0 0 0 0 0 0 0 0 0 0 0
0 0 0 0 0 0 0 0 0 0 0 0 0 0 0 0 0 0 0 0 0 0 0 0 0 0 0 0 0 0 0 0 0 0 0 0 0 0 0 0 0 0 0 0
0 0 0 0 0 0 0 0 0 0 0 0 0 0 0 0 0 0 0 0 0 0 0 0 0 0 0 0 0 0 0 0 0 0 0 0 0 0 0 0 0 0 0 0
0 0 0 0 0 0 0 0 0 0 0 0 0 0 0 0 0 0 0 0 0 0 0 0 0 0 0 0 0 0 0 0 0 0 0 0 0 0 0 0 0 0 0 0
0 0 0 0 0 0 0 0 0 0 0 0 0 0 0 0 0 0 0 0 0 0 0 0 0 0 0 0 0 0 0 0 0 0 0 0 0 0 0 0 0 0 0 0
0 0 0 0 0 0 0 0 0 0 0 0 0 0 0 0 0 0 0 0 0 0 0 0 0 0 0 0 0 0 0 0 0 0 0 0 0 0 0 0 0 0 0 0

GEFSNGP_con_probscp_204.txt.gz
Probability
0 0 0 0 0 0 0 0 0 1 2 4 4 4 7 11 16 19 21 26 33 38 43 47 47 45 44 44 44 46 44 37 35 37 33 28 24 22 20 17 16 15 14 11
0 0 0 0 0 0 0 0 0 1 2 4 4 5 8 12 16 19 22 27 35 39 43 46 46 45 46 47 47 46 42 38 37 38 35 29 24 23 22 21 21 20 17 15
0 0 0 0 1 1 1 1 1 2 4 4 5 7 10 13 15 20 26 32 38 42 46 48 46 46 50 50 48 46 43 42 40 39 35 31 28 27 27 26 25 23 21 20
0 0 0 0 0 1 2 3 4 6 6 6 6 7 11 14 17 22 31 37 41 44 50 52 50 51 53 50 45 43 45 45 43 39 36 34 31 30 29 27 25 23 23 23
0 0 0 0 0 0 1 4 7 9 8 7 7 5 9 18 24 31 38 41 41 43 50 54 54 55 55 50 43 39 41 44 44 41 39 37 33 30 30 29 27 25 24 24
0 0 0 0 0 0 1 4 8 9 9 10 10 9 15 27 35 41 45 45 44 45 50 53 55 56 55 49 43 39 39 43 45 44 42 39 35 32 32 31 29 26 23 21
0 0 0 1 1 2 4 6 8 9 11 12 15 17 25 34 40 44 47 49 50 52 53 54 55 56 54 48 44 44 43 44 44 43 40 37 35 33 32 30 26 23 20 17
0 0 2 4 5 7 11 11 11 12 11 13 17 22 27 32 35 39 44 49 52 53 53 52 52 50 47 43 41 43 42 40 39 38 34 33 32 31 30 28 24 20 17 14
1 1 3 6 9 12 13 13 12 11 11 12 15 20 24 26 28 31 37 43 46 45 44 44 43 41 38 36 35 35 35 35 33 31 30 29 29 28 28 26 23 20 16 13
2 2 4 6 8 9 9 9 9 9 10 11 12 16 22 24 24 24 28 34 37 35 34 35 35 33 32 32 33 32 31 31 29 27 26 26 25 23 23 22 20 18 16 13
3 3 4 5 5 6 6 6 6 7 8 10 11 14 20 22 19 18 21 26 28 27 28 29 30 30 29 32 34 33 29 26 23 22 21 20 19 16 14 13 12 12 12 11
2 2 2 2 2 4 5 5 5 6 8 8 10 12 15 16 13 12 16 20 22 22 23 25 26 27 28 31 33 31 25 19 17 16 15 13 12 10 8 6 4 4 5 5
1 1 1 2 2 3 5 6 5 6 8 8 9 11 11 9 7 8 11 15 17 18 20 20 21 22 24 26 27 25 18 13 11 11 10 8 8 8 6 4 2 1 1 1
0 0 2 3 4 6 8 8 7 6 6 6 7 9 9 5 4 5 8 11 14 15 16 16 15 16 19 21 22 18 13 9 8 7 5 4 5 5 4 4 4 3 2 0
0 0 1 3 6 8 9 8 7 4 3 4 5 7 6 3 2 3 5 8 9 11 13 13 11 12 16 19 18 13 9 7 6 4 2 1 1 1 2 2 3 4 3 1
0 0 1 3 5 6 5 4 4 3 1 2 3 4 4 2 1 1 2 3 5 7 9 9 8 9 12 14 14 11 6 4 3 3 2 1 1 1 1 2 3 3 3 3
0 1 2 3 3 2 1 1 2 2 1 1 1 3 3 1 1 1 1 1 3 5 6 5 5 5 6 7 8 7 4 2 2 3 3 2 2 2 3 3 3 3 3 3
0 1 2 3 3 2 1 0 1 1 0 0 1 2 2 1 1 2 2 2 2 2 2 2 3 3 2 2 2 4 4 2 2 2 2 3 3 3 3 3 3 3 3 3
0 1 3 3 3 3 2 1 0 0 0 1 2 2 1 1 1 1 2 2 2 1 0 1 1 2 1 0 1 2 3 2 1 1 1 1 3 3 3 3 3 3 3 2
1 2 3 3 3 3 2 1 0 0 0 1 1 1 1 1 1 0 1 1 1 0 0 0 0 0 0 0 0 1 1 2 2 1 0 1 2 3 3 3 2 2 1 1
3 3 3 3 2 1 1 0 0 0 0 0 0 0 1 2 1 0 0 0 0 0 0 0 0 0 0 0 0 0 1 2 3 2 1 0 1 2 2 1 1 1 0 0
3 3 3 2 1 0 0 0 0 0 0 0 0 0 1 2 1 0 0 0 0 0 0 0 0 0 0 0 0 0 0 1 2 2 1 0 1 2 1 0 0 0 0 0
2 2 1 1 0 0 0 0 0 0 0 0 0 0 0 1 1 0 0 0 0 0 0 0 0 0 0 0 0 0 0 0 1 2 2 1 1 1 1 0 0 0 0 0
1 1 0 0 0 0 0 0 0 0 0 0 0 0 0 0 0 0 0 0 0 0 0 0 0 0 0 0 0 0 0 0 0 1 1 2 1 1 0 0 0 0 0 0
0 0 0 0 0 0 0 0 0 0 0 0 0 0 0 0 0 0 0 0 0 0 0 0 0 0 0 0 0 0 0 0 0 0 1 1 1 0 0 0 0 0 0 0
0 0 0 0 0 0 0 0 0 0 0 0 0 0 0 0 0 0 0 0 0 0 0 0 0 0 0 0 0 0 0 0 0 0 0 0 0 0 0 0 0 0 0 0
0 0 0 0 0 0 0 0 0 0 0 0 0 0 0 0 0 0 0 0 0 0 0 0 0 0 0 0 0 0 0 0 0 0 0 0 0 0 0 0 0 0 0 0

GEFSNGP_con_probscp_210.txt.gz
Probability
0 0 0 0 0 0 0 0 2 4 6 7 10 13 19 26 28 30 33 40 50 58 61 63 66 71 71 68 67 69 69 67 66 63 62 59 53 49 45 41 38 39 39 38
0 0 0 0 0 0 0 1 3 5 7 9 11 16 22 28 30 31 33 37 46 56 61 64 67 69 69 67 67 68 68 66 65 64 62 58 54 52 50 45 40 38 38 36
0 0 0 0 1 1 1 2 4 6 8 11 14 20 27 32 35 36 37 41 47 53 58 61 64 67 66 64 65 66 66 64 63 63 61 58 56 55 55 50 42 37 36 35
0 0 1 1 2 3 3 5 6 7 8 10 13 19 28 35 40 43 44 46 48 50 52 54 59 62 63 62 63 64 63 61 61 60 60 60 59 57 57 52 44 38 35 33
1 1 2 3 3 4 4 6 8 9 10 11 11 15 23 34 43 49 50 49 48 49 52 56 59 61 61 61 62 63 63 62 61 59 60 62 60 57 55 51 45 39 33 29
2 2 2 3 4 4 5 9 12 12 14 15 15 17 24 35 46 52 53 54 54 55 59 64 66 65 63 62 62 63 64 64 63 61 61 61 57 53 51 49 45 38 30 25
3 3 3 4 6 10 14 20 23 21 19 20 21 23 30 41 48 52 53 56 59 61 65 69 71 70 68 66 64 63 64 64 63 62 59 57 54 50 46 45 42 36 27 22
5 6 10 15 19 24 31 34 32 27 23 23 23 25 31 39 44 47 49 54 59 62 65 69 71 71 70 68 65 62 60 58 57 56 53 50 49 45 42 40 37 32 26 21
10 12 18 27 33 36 37 36 31 25 22 22 24 26 28 32 35 38 42 48 54 57 60 64 66 65 64 61 58 55 52 50 49 48 46 43 41 38 35 33 31 28 24 20
16 18 22 27 30 29 28 25 22 18 17 19 23 26 25 26 30 33 35 39 43 45 48 51 53 52 50 48 47 45 43 42 41 39 36 33 29 26 24 23 23 23 20 17
18 19 21 21 21 19 17 15 13 13 15 17 20 22 21 23 27 30 30 29 31 33 34 36 38 39 38 37 36 35 35 34 33 30 27 23 18 13 12 12 13 14 14 14
16 19 19 19 18 15 14 14 12 12 15 17 18 18 18 20 24 25 24 23 23 24 25 26 28 30 31 30 30 30 30 28 26 24 22 19 14 9 6 5 5 6 7 9
16 18 19 17 15 13 13 15 14 14 15 17 17 15 15 16 18 19 18 17 16 17 19 20 22 24 25 26 26 26 26 23 21 19 19 19 16 10 5 3 3 3 3 3
14 15 15 12 10 10 11 11 11 12 14 15 13 12 10 10 11 12 11 10 11 13 15 16 16 17 19 20 21 22 20 17 16 15 15 16 14 10 5 3 3 3 2 1
9 9 8 6 6 7 7 7 8 9 10 10 9 9 8 7 7 7 6 6 7 9 12 13 13 14 15 15 16 16 15 13 13 12 11 10 9 6 3 3 3 3 3 3
4 5 4 3 4 6 7 7 8 8 7 7 6 7 7 7 6 6 4 3 3 5 9 11 11 11 11 11 11 13 13 11 9 7 7 5 4 2 2 3 3 3 3 3
2 3 3 3 4 5 7 8 8 7 6 5 5 5 6 7 5 4 2 1 1 2 5 7 7 8 9 9 9 11 11 9 6 5 6 5 4 3 3 3 3 3 3 3
2 2 2 3 4 5 6 7 6 5 4 4 3 3 4 5 4 3 1 0 0 1 2 3 4 5 6 6 6 8 10 8 6 6 7 7 5 3 3 3 3 3 3 3
3 3 3 4 4 4 5 5 5 4 3 3 2 2 4 4 4 3 2 2 1 1 2 2 2 3 3 3 4 5 7 6 6 7 6 5 4 3 3 3 3 3 3 3
4 4 5 5 4 3 3 4 3 3 2 2 2 3 5 5 4 4 3 2 2 2 3 3 3 3 2 2 2 2 3 3 5 6 6 4 3 3 3 3 3 3 3 3
5 5 5 4 3 3 3 3 2 1 1 1 2 4 5 4 3 3 2 2 3 3 2 2 2 2 1 1 1 0 0 1 3 5 5 4 3 3 3 3 3 3 3 3
4 4 3 3 3 3 3 3 1 0 0 0 1 2 2 1 1 2 2 3 3 2 1 1 1 1 0 0 0 0 0 0 1 3 4 3 3 3 3 3 3 3 2 1
3 3 2 3 3 3 3 2 0 0 0 0 0 0 0 0 0 2 3 3 2 1 0 0 0 0 0 0 0 0 0 0 0 1 2 3 3 3 3 3 2 1 1 0
2 2 2 2 2 3 2 1 0 0 0 0 0 0 0 0 1 2 2 1 1 0 0 0 0 0 0 0 0 0 0 0 0 1 2 3 3 3 3 2 1 0 0 0
1 2 2 2 1 2 2 1 1 0 0 0 0 0 0 0 1 2 2 1 0 0 0 0 0 0 0 0 0 0 0 0 0 1 2 2 2 2 2 1 0 0 0 0
1 2 3 1 1 1 1 0 0 0 0 0 0 0 0 0 0 1 1 0 0 0 0 0 0 0 0 0 0 0 0 0 0 1 1 1 1 1 1 0 0 0 0 0
1 3 3 1 1 1 0 0 0 0 0 0 0 0 0 0 0 0 0 0 0 0 0 0 0 0 0 0 0 0 0 0 0 0 0 0 0 0 0 0 0 0 0 0

GEFSNGP_con_probscp_216.txt.gz
Probability
0 0 0 0 0 0 0 0 1 3 6 11 18 26 32 35 43 48 48 46 44 42 43 46 49 48 45 45 49 53 52 45 36 28 22 17 12 6 2 1 1 2 2 2
0 0 0 0 0 0 0 1 2 4 8 15 24 31 34 37 43 48 48 44 41 38 38 41 45 46 45 45 48 52 52 47 39 32 25 19 13 9 5 3 4 4 5 4
0 0 0 0 0 0 0 1 3 6 13 23 33 36 35 37 42 48 49 45 40 36 35 36 41 44 43 44 45 48 50 48 44 38 30 23 18 14 10 8 7 7 6 6
0 0 0 1 1 1 2 3 5 10 19 28 36 38 36 38 42 45 47 45 40 38 37 38 40 42 43 43 45 46 46 46 46 41 32 27 24 22 19 14 11 8 7 7
0 0 1 2 4 4 4 7 9 13 21 28 33 38 39 39 42 43 43 41 39 38 40 41 41 43 44 45 46 45 43 43 43 39 32 28 28 27 23 19 14 10 7 7
0 0 1 4 7 7 6 8 11 13 18 24 29 34 36 38 42 42 41 40 38 39 42 43 43 44 44 44 44 43 42 40 38 36 33 30 27 25 22 18 13 10 7 6
0 1 3 6 8 8 7 9 12 14 16 19 23 27 31 35 39 38 38 38 38 38 41 42 42 43 43 41 39 38 39 38 36 36 34 30 25 22 20 16 13 11 8 6
1 1 3 6 7 7 8 12 17 18 18 18 19 21 24 28 29 28 29 30 31 31 33 35 37 39 40 38 34 32 33 34 34 34 31 26 22 20 18 16 14 12 10 7
4 4 5 6 7 7 9 15 20 21 20 18 17 17 17 18 18 18 18 19 20 21 23 25 28 31 33 33 30 27 26 28 29 27 23 20 18 16 16 15 14 12 10 9
8 8 10 11 11 10 12 16 20 21 21 18 14 13 12 12 13 13 12 12 13 15 16 16 18 21 23 25 25 24 20 20 22 20 17 13 11 10 10 10 10 10 9 10
7 9 13 15 14 13 15 17 18 19 18 15 12 12 12 12 11 11 9 8 9 11 12 10 10 12 15 17 20 20 16 14 15 15 13 9 6 5 5 5 6 6 7 8
5 6 11 13 13 12 13 14 13 13 13 13 12 12 11 10 9 7 6 5 5 7 7 6 5 6 9 11 14 16 13 11 11 12 10 7 5 3 3 3 3 4 4 5
4 5 8 10 10 10 10 11 11 10 10 10 11 10 9 7 5 4 4 3 3 3 4 4 3 3 5 8 11 12 11 9 9 8 8 6 4 3 3 3 3 3 2 2
4 4 5 7 7 7 9 11 12 10 8 7 8 8 8 6 4 3 3 3 2 2 2 2 1 1 3 6 9 9 9 8 7 6 6 4 3 3 3 3 3 3 2 1
2 2 2 3 4 5 7 9 10 7 5 4 5 6 6 6 4 3 2 1 1 1 1 1 0 0 1 4 6 7 7 6 5 4 3 2 1 1 2 3 3 3 3 2
0 0 1 2 2 4 5 6 5 3 2 3 3 2 3 3 2 1 1 0 0 0 0 0 0 0 0 1 3 4 5 4 3 3 2 0 0 0 1 2 2 2 3 3
0 0 1 1 1 2 3 3 2 0 1 2 1 1 1 1 1 0 0 0 0 0 0 0 0 0 0 0 1 2 3 3 3 2 1 0 0 0 0 1 1 1 1 2
0 0 0 0 0 1 1 1 0 0 0 1 2 1 1 0 0 0 0 0 0 0 0 0 0 0 0 0 0 1 2 2 1 1 1 0 0 0 0 0 0 0 0 1
0 0 0 0 0 0 0 0 0 0 0 1 2 2 1 0 0 0 0 0 0 0 0 0 0 0 0 0 0 0 1 1 0 0 0 0 0 0 0 0 0 1 1 0
0 0 0 0 0 0 0 0 0 0 0 0 1 1 1 0 0 0 0 0 0 0 0 0 0 0 0 0 0 0 0 0 0 0 0 0 0 1 1 1 1 2 1 1
0 0 0 0 0 0 0 0 0 0 0 0 0 0 0 0 0 0 0 0 0 0 0 0 1 1 1 0 0 0 0 0 0 0 0 0 0 1 2 2 2 2 1 0
0 0 0 0 0 0 0 0 0 0 0 0 0 0 0 0 0 0 0 0 0 0 0 0 1 2 1 0 0 0 0 0 0 0 0 0 0 1 2 3 2 1 0 0
0 0 0 0 0 0 0 0 0 0 0 0 0 0 0 0 0 0 0 0 0 0 0 0 1 1 1 0 0 0 0 0 0 0 0 0 0 0 1 2 1 0 0 0
0 0 0 0 0 0 0 0 0 0 0 0 0 0 0 0 0 0 0 0 0 0 1 0 0 0 0 0 0 0 0 0 0 0 0 0 0 0 1 1 1 0 0 0
0 0 0 0 0 0 0 0 0 0 0 0 0 0 0 0 0 0 0 0 0 0 0 0 0 0 0 0 0 0 0 0 0 0 0 0 0 0 0 0 0 0 0 0
0 0 0 0 0 0 0 0 0 0 0 0 0 0 0 0 0 0 0 0 0 0 0 0 0 0 0 0 0 0 0 0 0 0 0 0 0 0 0 0 0 0 0 0
0 0 0 0 0 0 0 0 0 0 0 0 0 0 0 0 0 0 0 0 0 0 0 0 0 0 0 0 0 0 0 0 0 0 0 0 0 0 0 0 0 0 0 0

GEFSNGP_con_probscp_222.txt.gz
Probability
0 0 0 0 0 0 0 0 0 1 4 7 11 14 18 23 27 28 31 34 36 35 33 30 26 24 23 23 23 25 30 32 31 25 19 15 13 11 10 9 7 6 4 3
0 0 0 0 0 0 0 0 1 2 4 8 13 18 21 25 28 30 31 32 32 32 31 28 25 23 24 25 27 28 29 29 29 27 21 17 15 13 13 13 11 9 6 4
0 0 0 0 0 0 0 1 2 3 6 12 18 23 26 28 31 33 31 28 26 25 25 25 21 20 22 27 32 33 30 27 28 28 25 22 20 18 17 17 16 11 7 4
0 0 0 0 0 0 0 1 3 5 10 17 22 27 30 30 31 32 30 26 21 18 18 19 17 17 20 26 32 34 31 27 27 28 26 24 23 20 18 18 16 12 7 5
0 0 0 0 0 0 1 2 5 9 15 19 23 26 27 25 26 28 28 23 18 14 13 15 17 17 19 23 28 30 28 26 26 26 25 23 22 20 19 19 16 12 9 9
0 0 0 1 1 1 2 3 6 11 16 19 19 19 19 19 22 26 27 24 18 13 14 16 18 19 20 22 24 25 24 23 24 25 24 22 22 20 18 17 15 12 11 10
0 0 1 2 3 1 1 3 5 9 14 16 14 12 13 17 21 25 26 24 19 17 18 18 18 20 23 23 23 21 20 21 23 23 21 20 20 19 15 13 12 11 10 8
0 1 2 3 3 1 1 2 5 7 11 14 13 12 12 14 17 20 21 20 20 20 19 17 15 18 21 22 21 19 18 19 20 20 18 17 19 18 14 12 13 13 10 8
1 1 2 3 3 2 3 4 6 9 13 15 14 13 11 10 12 14 15 15 17 18 16 13 13 15 18 18 17 17 17 15 15 16 17 16 16 15 14 13 14 14 12 9
2 2 2 3 4 4 5 7 9 13 15 15 13 11 10 9 9 9 11 12 14 14 12 10 10 12 14 13 13 15 13 10 10 12 13 12 11 10 10 10 11 12 11 9
2 2 3 4 5 5 6 9 12 15 14 12 10 9 8 8 8 8 9 10 11 10 8 7 7 7 8 8 9 10 8 6 6 8 7 6 6 5 5 6 7 7 7 7
1 1 1 3 4 4 6 8 10 12 11 9 8 7 7 7 8 8 8 8 8 7 5 4 4 4 5 5 6 5 4 3 4 4 3 3 3 3 3 4 3 3 3 3
0 0 0 1 3 3 3 5 6 6 6 6 6 6 6 6 6 7 6 6 5 4 3 3 3 3 4 5 5 3 1 1 2 2 2 2 3 3 3 3 2 1 1 1
0 0 0 1 2 2 2 4 4 4 4 4 4 3 3 3 4 5 4 4 4 3 3 3 3 3 4 4 3 1 0 0 0 1 2 2 3 3 3 3 3 2 1 1
0 0 0 0 1 2 3 4 5 4 3 2 1 1 1 1 2 3 3 3 3 3 3 3 3 3 2 2 1 0 0 0 0 0 1 1 2 2 3 3 3 3 3 2
0 0 0 0 0 1 2 3 3 3 2 1 0 0 0 0 2 3 3 2 2 2 2 2 2 1 1 0 0 0 0 0 0 0 0 0 1 1 1 2 2 2 2 2
0 0 0 0 0 0 0 1 1 1 1 0 0 0 0 0 1 2 2 1 1 1 1 1 1 0 0 0 0 0 0 0 0 0 0 0 0 0 0 1 1 1 1 1
0 0 0 0 0 0 0 0 0 0 0 0 0 0 0 0 0 1 1 0 0 0 0 0 0 0 0 0 0 0 0 0 0 0 0 0 0 0 0 0 1 1 1 0
0 0 0 0 0 0 0 0 0 0 0 1 0 0 0 0 0 0 0 0 0 0 0 0 0 0 0 0 0 0 0 0 0 0 0 0 0 0 0 0 1 1 1 0
0 0 0 0 0 0 0 0 0 0 0 0 0 0 0 0 0 0 0 0 0 0 0 0 0 0 0 0 0 0 0 0 0 0 0 0 0 0 0 0 0 1 1 1
0 0 0 0 0 0 0 0 0 0 0 0 0 0 0 0 0 0 0 0 0 0 0 0 0 0 0 0 0 0 0 0 0 0 0 0 0 0 0 0 0 0 0 0
0 0 0 0 0 0 0 0 0 0 0 0 0 0 0 0 0 0 0 0 0 0 0 0 0 0 0 0 0 0 0 0 0 0 0 0 0 0 0 0 0 0 0 0
0 0 0 0 0 0 0 0 0 0 0 0 0 0 0 0 0 0 0 0 0 0 0 0 0 0 0 0 0 0 0 0 0 0 0 0 0 0 0 0 0 0 0 0
0 0 0 0 0 0 0 0 0 0 0 0 0 0 0 0 0 0 0 0 0 0 0 0 0 0 0 0 0 0 0 0 0 0 0 0 0 0 0 0 0 0 0 0
0 0 0 0 0 0 0 0 0 0 0 0 0 0 0 0 0 0 0 0 0 0 0 0 0 0 0 0 0 0 0 0 0 0 0 0 0 0 0 0 0 0 0 0
0 0 0 0 0 0 0 0 0 0 0 0 0 0 0 0 0 0 0 0 0 0 0 0 0 0 0 0 0 0 0 0 0 0 0 0 0 0 0 0 0 0 0 0
0 0 0 0 0 0 0 0 0 0 0 0 0 0 0 0 0 0 0 0 0 0 0 0 0 0 0 0 0 0 0 0 0 0 0 0 0 0 0 0 0 0 0 0